KINEIS-2A

Last updated on Mon Sep 21 2026 00:02:54 GMT+0000 (Coordinated Universal Time)

1 62932U 25028E 26263.09698356 .00000711 00000+0 11710-3 0 9995 2 62932 98.1208 318.6177 0003870 208.4982 151.6015 14.73575367 86580
UTC large
Height (km)
Speed (km/s)
/
Latitude / Longitude
Inclination (degrees)
Orbital Period (minutes)
Azimuth
Elevation
Range (km)
Doppler Factor

Next 0 passes for location: London (51.5072 / 0.1276)

No passes found over London.
KINEIS-2A